Starlink 31513

operational
NORAD ID: 59529 Int'l Des: 2024-073 Owner: SPXS Country: US Constellation: starlink
LEOCIRCULAR

Über Starlink 31513

Beschreibung wird geladen...

Live-Position

3D-Globus wird geladen...

Nächste Überflüge

Höhenverlauf

Altitude vs Time

uPlot chart will show altitude changes over time

Zweizeiliger Elementsatz

1 59529U 24073U 26034.36825078 -.00001621 00000-0 -49424-4 0 9999
2 59529 43.0030 148.6046 0000729 237.6308 122.4473 15.27570397100963
Epoch: 3. Feb. 2026 • Age: 26 hours

Aktueller Status

Höhe 496.0 km
Geschwindigkeit 7.62 km/s
Subsatellitenpunkt -43.13°S, 113.42°E
Startdatum 17. Apr. 2024
Alter 1.7 years
Typ internet

Technische Details

Klassifizierung Payload
Masse 730.00 kg
Trockenmasse 700.00 kg
Gesamtmasse 730.00 kg
Länge 0.30 m
Durchmesser 4.10 m
Spannweite 29.00 m
Form Box + pan
Hersteller SPXS
Bus-Typ Starlink V2M
Phasenstatus In Orbit
Besitzer/Staat SPXS/US

Große Konstellationen

Loading constellations...